User: anonymous   Login
Location: Maiden
(35.5760°N, 81.2120°W)
Time: 11:07:15
(UTC-04:00)
Language:

A-11 Canister half - Orbit

View from above orbital plane
View from above orbital plane
View from above satellite
View from above satellite

Ground track
Ground track

The orbit data is extracted from the following two-line orbital elements,

1    51U 60009C   20216.88523700 -.00000155 +00000-0 -68882-3 0  9993
2    51 047.2105 200.6783 0108852 303.7921 055.2540 12.18276775669875
Epoch (UTC): 03 August 2020 21:14:44
Eccentricity: 0.0108852
inclination: 47.2105°
perigee height: 1513 km
apogee height: 1687 km
right ascension of ascending node: 200.6783°
argument of perigee: 303.7921°
revolutions per day: 12.18276775
mean anomaly at epoch: 55.2540°
orbit number at epoch: 66987

The dashed part of the orbit path shows where the satellite is in the earth's shadow,  

DLR